Rome Ciampino, Italy

8:51 AM CEST on September 23, 2017 (GMT +0200)
Ciampino

Weather History for LIRA - July, 2014

Change the Weather History Date:

Thursday, July 31, 2014

  Actual Average Record
Temperature  
Mean Temperature 70 °F -  
Max Temperature 81 °F 87 °F 98 °F (2017)
Min Temperature 59 °F 64 °F 37 °F (2003)
Cooling Degree Days 5    
Growing Degree Days 20 (Base 50)    
Moisture  
Dew Point 61 °F    
Average Humidity 71    
Maximum Humidity 88    
Minimum Humidity 43    
Precipitation  
Precipitation 0.00 in 0.04 in - ()
Sea Level Pressure  
Sea Level Pressure 29.80 in    
Wind  
Wind Speed 3 mph ()    
Max Wind Speed 12 mph    
Max Gust Speed -    
Visibility 6.8 miles    
Events      
Averages and records for this station are not official NWS values.
T = Trace of Precipitation, MM = Missing Value Source: Averaged Metar Reports

Daily Weather History Graph

Daily Weather History Graph

Search for Another Location

Airport or City:

Trip Planner

Search our weather history database for the weather conditions in past years. The results will help you decide how hot, cold, wet, or windy it might be!

Date:

Astronomy

Jul. 31, 2014 Rise Set
Actual Time 6:02 AM CEST 8:29 PM CEST
Civil Twilight 5:30 AM CEST 9:00 PM CEST
Nautical Twilight 4:51 AM CEST 9:39 PM CEST
Astronomical Twilight 4:07 AM CEST 10:23 PM CEST
Moon 10:18 AM CEST (7/31) 10:28 PM CEST (7/31)
Length of Visible Light 15h 29m
Length of Day
14h 26m
Waxing Crescent, 17% of the Moon is Illuminated
Jul 31
Waxing Crescent
Aug 4
First Quarter
Aug 10
Full
Aug 17
Last Quarter
Aug 25
New

Hourly Weather History & Observations

Time (CEST) Temp. Heat Index Dew Point Humidity Pressure Visibility Wind Dir Wind Speed Gust Speed Precip Events Conditions
12:15 AM 64.4 °F - 59.0 °F 83% 29.77 in 6.2 mi ENE 2.3 mph - N/A   Partly Cloudy
12:45 AM 64.4 °F - 59.0 °F 83% 29.77 in 6.2 mi Calm Calm - N/A   Partly Cloudy
1:15 AM 64.4 °F - 59.0 °F 83% 29.77 in 6.2 mi Calm Calm - N/A   Partly Cloudy
1:45 AM 64.4 °F - 59.0 °F 83% 29.77 in 6.2 mi NE 2.3 mph - N/A   Partly Cloudy
2:00 AM 64 °F - 59 °F 79% 29.78 in 6 mi NE 2.3 mph - -   Scattered Clouds
2:15 AM 62.6 °F - 59.0 °F 88% 29.77 in 6.2 mi NE 2.3 mph - N/A   Scattered Clouds
2:45 AM 62.6 °F - 59.0 °F 88% 29.77 in 6.2 mi ENE 1.2 mph - N/A   Scattered Clouds
3:15 AM 62.6 °F - 59.0 °F 88% 29.77 in 6.2 mi NNW 3.5 mph - N/A   Scattered Clouds
3:45 AM 62.6 °F - 59.0 °F 88% 29.77 in 6.2 mi NNW 1.2 mph - N/A   Mostly Cloudy
4:15 AM 62.6 °F - 57.2 °F 82% 29.77 in 6.2 mi NNE 1.2 mph - N/A   Mostly Cloudy
4:45 AM 62.6 °F - 59.0 °F 88% 29.77 in 6.2 mi Calm Calm - N/A   Partly Cloudy
5:00 AM 63 °F - 59 °F 83% 29.79 in 6 mi Calm Calm - -   Scattered Clouds
5:15 AM 60.8 °F - 57.2 °F 88% 29.77 in 6.2 mi NE 3.5 mph - N/A   Scattered Clouds
5:45 AM 60.8 °F - 57.2 °F 88% 29.80 in 6.2 mi North 1.2 mph - N/A   Scattered Clouds
6:15 AM 60.8 °F - 57.2 °F 88% 29.80 in 6.2 mi North 1.2 mph - N/A   Scattered Clouds
6:45 AM 59.0 °F - 55.4 °F 88% 29.80 in 6.2 mi ENE 3.5 mph - N/A   Scattered Clouds
7:15 AM 60.8 °F - 57.2 °F 88% 29.80 in 6.2 mi ENE 3.5 mph - N/A   Scattered Clouds
7:45 AM 62.6 °F - 59.0 °F 88% 29.80 in 6.2 mi NNW 2.3 mph - N/A   Scattered Clouds
8:00 AM 63 °F - 58 °F 79% 29.81 in 12 mi NNW 2.3 mph - -   Scattered Clouds
8:15 AM 64.4 °F - 59.0 °F 83% 29.80 in 6.2 mi North 2.3 mph - N/A   Scattered Clouds
8:45 AM 66.2 °F - 59.0 °F 78% 29.80 in 6.2 mi NNE 3.5 mph - N/A   Partly Cloudy
9:15 AM 66.2 °F - 59.0 °F 78% 29.80 in 6.2 mi North 4.6 mph - N/A   Scattered Clouds
9:45 AM 68.0 °F - 59.0 °F 73% 29.80 in 6.2 mi North 2.3 mph - N/A   Partly Cloudy
10:15 AM 69.8 °F - 60.8 °F 73% 29.80 in 6.2 mi NNW 4.6 mph - N/A   Partly Cloudy
10:45 AM 73.4 °F - 60.8 °F 65% 29.83 in 6.2 mi North 4.6 mph - N/A   Partly Cloudy
11:00 AM 73 °F - 61 °F 56% 29.82 in 12 mi North 4.6 mph - -   Scattered Clouds
11:15 AM 73.4 °F - 60.8 °F 65% 29.83 in 6.2 mi North 6.9 mph - N/A   Scattered Clouds
11:45 AM 75.2 °F - 60.8 °F 61% 29.83 in 6.2 mi NNW 5.8 mph - N/A   Scattered Clouds
12:15 PM 75.2 °F - 59.0 °F 57% 29.83 in 6.2 mi NW 5.8 mph - N/A   Scattered Clouds
12:45 PM 77.0 °F - 60.8 °F 57% 29.83 in 6.2 mi NNE 6.9 mph - N/A   Scattered Clouds
1:15 PM 78.8 °F - 60.8 °F 54% 29.83 in 6.2 mi NNW 4.6 mph - N/A   Scattered Clouds
1:45 PM 78.8 °F - 60.8 °F 54% 29.80 in 6.2 mi NNW 6.9 mph - N/A   Scattered Clouds
2:00 PM 79 °F - 60 °F 43% 29.81 in 12 mi NNW 6.9 mph - -   Partly Cloudy
2:15 PM 78.8 °F - 59.0 °F 51% 29.80 in 6.2 mi NNW 8.1 mph - N/A   Scattered Clouds
2:45 PM 78.8 °F - 59.0 °F 51% 29.80 in 6.2 mi WNW 10.4 mph - N/A   Scattered Clouds
3:15 PM 78.8 °F - 60.8 °F 54% 29.80 in 6.2 mi West 10.4 mph - N/A   Scattered Clouds
3:45 PM 78.8 °F - 62.6 °F 57% 29.80 in 6.2 mi West 10.4 mph - N/A   Scattered Clouds
4:15 PM 78.8 °F - 62.6 °F 57% 29.80 in 6.2 mi West 11.5 mph - N/A   Scattered Clouds
4:45 PM 80.6 °F 81.8 °F 62.6 °F 54% 29.80 in 6.2 mi West 10.4 mph - N/A   Scattered Clouds
5:00 PM 80 °F - 62 °F 45% 29.81 in 12 mi West 10.4 mph - -   Partly Cloudy
5:15 PM 78.8 °F - 62.6 °F 57% 29.80 in 6.2 mi West 10.4 mph - N/A   Scattered Clouds
5:45 PM 78.8 °F - 62.6 °F 57% 29.80 in 6.2 mi West 10.4 mph - N/A   Scattered Clouds
6:15 PM 78.8 °F - 62.6 °F 57% 29.80 in 6.2 mi West 6.9 mph - N/A   Scattered Clouds
6:45 PM 78.8 °F - 64.4 °F 61% 29.80 in 6.2 mi West 10.4 mph - N/A   Partly Cloudy
7:15 PM 78.8 °F - 66.2 °F 65% 29.80 in 6.2 mi West 6.9 mph - N/A   Partly Cloudy
7:45 PM 77.0 °F - 66.2 °F 69% 29.80 in 6.2 mi West 5.8 mph - N/A   Partly Cloudy
8:00 PM 78 °F - 66 °F 57% 29.80 in 12 mi West 5.8 mph - -   Scattered Clouds
8:15 PM 75.2 °F - 66.2 °F 73% 29.80 in 6.2 mi West 6.9 mph - N/A   Partly Cloudy
8:45 PM 73.4 °F - 64.4 °F 73% 29.80 in 6.2 mi West 5.8 mph - N/A   Partly Cloudy
9:15 PM 73.4 °F - 64.4 °F 73% 29.80 in 6.2 mi West 3.5 mph - N/A   Partly Cloudy
9:45 PM 71.6 °F - 64.4 °F 78% 29.83 in 6.2 mi Calm Calm - N/A   Partly Cloudy
10:15 PM 71.6 °F - 64.4 °F 78% 29.83 in 6.2 mi South 1.2 mph - N/A   Partly Cloudy
10:45 PM 71.6 °F - 64.4 °F 78% 29.83 in - SSW 1.2 mph - N/A   Clear
11:00 PM 72 °F - 64 °F 68% 29.83 in 9 mi SSW 1.2 mph - -   Clear
11:15 PM 71.6 °F - 64.4 °F 78% 29.83 in - SSW 3.5 mph - N/A   Clear
11:45 PM 69.8 °F - 62.6 °F 78% 29.83 in - South 3.5 mph - N/A   Clear